User: anonymous   Login
Location: Unspecified
(0.0000°N, 0.0000°E)
Time: 10:24:21
(UTC+00:00)
Language:

USA 271 - Orbit

View from above orbital plane
View from above orbital plane
View from above satellite
View from above satellite

Ground track
Ground track

The orbit data is extracted from the following two-line orbital elements,

1 41745U 16052B   24109.23468751 -.00000253  00000-0  00000+0 0  9997
2 41745   2.1368  87.2211 0010572  14.5579 123.1059  0.99948589 20004
Epoch (UTC): 18 April 2024 05:37:57
Eccentricity: 0.0010572
inclination: 2.1368°
perigee height: 35832 km
apogee height: 35922 km
right ascension of ascending node: 87.2211°
argument of perigee: 14.5579°
revolutions per day: 0.99948589
mean anomaly at epoch: 123.1059°
orbit number at epoch: 2000

The dashed part of the orbit path shows where the satellite is in the earth's shadow,  

DLR